Latest Weather Observations for Edinburgh

IDS60801

Issued at 4:35 pm CST Saturday 23 August 2014 (issued every 30 minutes, with the page automatically refreshed every 10 minutes)

About weather observations | Map of weather stations | Latest weather observations for SA | Other Formats
Station Details ID: 023083 Name: EDINBURGH RAAF Lat: -34.71 Lon: 138.62 Height: 16.54 m
Data from the previous 72 hours. | See also: Recent months at Edinburgh
Date/Time
CST
Temp
°C
App
Temp
°C
Dew
Point
Rel
Hum
%
Delta-T
°C
Wind Press
QNH
hPa
Press
MSL
hPa
Rain
since 9 am
mm
Dir
 
Spd
km/h
Gust
km/h
Spd
kts
Gust
kts
23/04:30pm 14.5 10.3 8.2 66 3.1 SW 20 26 11 14 1025.8 1025.8 0.0
23/04:00pm 15.0 10.9 8.5 65 3.3 SW 20 28 11 15 1025.4 1025.4 0.0
23/03:30pm 15.9 12.0 9.3 65 3.4 WSW 20 28 11 15 1025.1 1025.1 0.0
23/03:00pm 16.4 11.0 7.9 57 4.3 W 26 33 14 18 1024.9 1024.9 0.0
23/02:30pm 16.4 9.6 6.8 53 4.7 W 32 39 17 21 1024.7 1024.7 0.0
23/02:00pm 16.7 10.6 8.4 58 4.2 W 30 39 16 21 1024.4 1024.4 0.0
23/01:30pm 16.6 10.1 9.1 61 3.9 W 33 39 18 21 1024.4 1024.4 0.0
23/01:00pm 16.9 11.7 10.1 64 3.6 W 28 37 15 20 1024.6 1024.6 0.0
23/12:30pm 15.5 10.8 10.5 72 2.6 W 26 33 14 18 1024.7 1024.7 0.0
23/12:00pm 15.0 10.7 10.6 75 2.3 W 24 32 13 17 1024.8 1024.8 0.0
23/11:30am 14.4 11.0 10.4 77 2.1 W 19 24 10 13 1025.0 1025.0 0.0
23/11:00am 13.6 8.3 9.8 78 2.0 WSW 28 37 15 20 1024.8 1024.8 0.0
23/10:30am 15.8 10.6 9.0 64 3.5 WNW 26 33 14 18 1024.6 1024.6 0.0
23/10:00am 16.9 12.3 6.7 51 5.0 NNW 20 28 11 15 1024.3 1024.3 0.0
23/09:30am 16.0 10.6 6.4 53 4.7 NNW 24 30 13 16 1024.2 1024.2 0.0
23/09:00am 13.6 8.9 5.3 57 3.9 N 19 26 10 14 1023.8 1023.8 0.0
23/08:30am 13.5 8.9 5.4 58 3.8 N 19 24 10 13 1023.5 1023.5 0.0
23/08:00am 13.7 10.3 5.8 59 3.7 N 13 17 7 9 1023.4 1023.4 0.0
23/07:30am 14.1 10.3 6.0 58 3.8 NNE 15 20 8 11 1022.9 1022.9 0.0
23/07:00am 13.8 8.9 5.2 56 4.0 NNE 20 26 11 14 1022.3 1022.3 0.0
23/06:30am 13.2 8.5 5.1 58 3.7 NE 19 26 10 14 1022.0 1022.0 0.0
23/06:00am 13.8 8.9 5.2 56 4.0 NE 20 24 11 13 1021.7 1021.7 0.0
23/05:30am 14.1 9.2 4.9 54 4.3 NNE 20 32 11 17 1021.4 1021.4 0.0
23/05:00am 14.1 9.2 4.9 54 4.3 NE 20 28 11 15 1021.1 1021.1 0.0
23/04:30am 14.3 8.5 4.6 52 4.5 NNE 24 32 13 17 1021.1 1021.1 0.0
23/04:00am 13.4 7.7 4.8 56 4.0 NE 24 32 13 17 1021.0 1021.0 0.0
23/03:30am 13.1 8.1 4.5 56 3.9 NNE 20 28 11 15 1021.6 1021.6 0.0
23/03:00am 11.9 7.0 5.1 63 3.1 NE 20 24 11 13 1021.6 1021.6 0.0
23/02:30am 10.6 5.9 5.2 69 2.4 NE 19 22 10 12 1022.1 1022.1 0.0
23/02:00am 9.9 5.4 4.1 67 2.6 NNE 17 19 9 10 1022.6 1022.6 0.0
23/01:30am 10.0 5.5 4.0 66 2.6 N 17 19 9 10 1022.8 1022.8 0.0
23/01:00am 11.3 6.7 3.8 60 3.3 NNE 17 20 9 11 1022.5 1022.5 0.0
23/12:30am 12.3 7.2 4.0 57 3.7 NNE 20 24 11 13 1022.6 1022.6 0.0
23/12:00am 12.4 7.3 4.1 57 3.7 NE 20 24 11 13 1022.6 1022.6 0.0
 
Date/Time
CST
Temp
°C
App
Temp
°C
Dew
Point
Rel
Hum
%
Delta-T
°C
Wind Press
QNH
hPa
Press
MSL
hPa
Rain
since 9 am
mm
Dir
 
Spd
km/h
Gust
km/h
Spd
kts
Gust
kts
22/11:30pm 12.7 6.8 3.9 55 3.9 NE 24 32 13 17 1022.4 1022.4 0.0
22/11:00pm 8.5 3.9 3.6 71 2.1 NNE 17 20 9 11 1022.5 1022.5 0.0
22/10:30pm 10.0 5.0 3.5 64 2.8 N 19 20 10 11 1023.1 1023.1 0.0
22/10:00pm 11.5 6.8 3.3 57 3.6 NE 17 20 9 11 1023.1 1023.1 0.0
22/09:30pm 10.8 6.1 3.4 60 3.2 NE 17 19 9 10 1023.4 1023.4 0.0
22/09:00pm 10.6 6.2 2.9 59 3.3 NNE 15 17 8 9 1023.5 1023.5 0.0
22/08:30pm 11.8 7.1 3.1 55 3.8 NE 17 19 9 10 1023.3 1023.3 0.0
22/08:00pm 13.1 8.0 2.9 50 4.5 NE 19 22 10 12 1023.1 1023.1 0.0
22/07:30pm 12.0 7.8 4.0 58 3.6 NE 15 17 8 9 1023.0 1023.0 0.0
22/07:00pm 12.5 9.4 3.7 55 3.9 ENE 9 11 5 6 1023.1 1023.1 0.0
22/06:30pm 13.3 9.1 3.9 53 4.2 NE 15 17 8 9 1023.0 1023.0 0.0
22/06:00pm 14.3 10.6 4.6 52 4.5 ENE 13 17 7 9 1022.7 1022.7 0.0
22/05:30pm 15.9 11.5 4.6 47 5.3 NE 17 20 9 11 1022.7 1022.7 0.0
22/05:00pm 18.0 14.0 4.9 42 6.3 NE 15 19 8 10 1022.5 1022.5 0.0
22/04:30pm 19.0 14.0 3.6 36 7.2 NNE 19 24 10 13 1022.5 1022.5 0.0
22/04:00pm 19.4 14.1 3.2 34 7.6 NE 20 26 11 14 1022.4 1022.4 0.0
22/03:30pm 19.8 14.6 3.5 34 7.7 NNE 20 28 11 15 1022.6 1022.6 0.0
22/03:00pm 20.1 15.4 5.0 37 7.3 NNE 19 26 10 14 1022.6 1022.6 0.0
22/02:30pm 20.3 15.2 3.9 34 7.8 NE 20 28 11 15 1022.8 1022.8 0.0
22/02:00pm 19.9 14.7 3.6 34 7.7 NNE 20 28 11 15 1023.1 1023.1 0.0
22/01:30pm 20.0 15.0 4.5 36 7.5 NNE 20 28 11 15 1023.6 1023.6 0.0
22/01:00pm 19.6 14.3 4.9 38 7.1 NE 22 32 12 17 1024.0 1024.0 0.0
22/12:30pm 19.6 14.0 5.3 39 7.0 NNE 24 28 13 15 1024.6 1024.6 0.0
22/12:00pm 19.2 12.5 3.8 36 7.3 NE 28 35 15 19 1025.1 1025.1 0.0
22/11:30am 18.8 11.2 3.0 35 7.3 NNE 32 37 17 20 1025.7 1025.7 0.0
22/11:00am 18.5 11.2 4.3 39 6.8 NNE 32 39 17 21 1025.9 1025.9 0.0
22/10:30am 18.2 11.3 4.7 41 6.4 NNE 30 43 16 23 1026.3 1026.3 0.0
22/10:00am 17.4 11.9 6.0 47 5.6 NNE 24 32 13 17 1026.5 1026.5 0.0
22/09:30am 15.6 9.5 4.9 49 5.0 NE 26 32 14 17 1026.7 1026.7 0.0
22/09:00am 15.3 9.6 4.9 50 4.9 NE 24 32 13 17 1026.6 1026.6 0.0
22/08:30am 14.3 8.6 4.9 53 4.4 NE 24 28 13 15 1026.6 1026.6 0.0
22/08:00am 13.2 8.2 4.6 56 4.0 NE 20 24 11 13 1026.4 1026.4 0.0
22/07:30am 12.2 8.2 5.1 62 3.2 NNE 15 19 8 10 1026.2 1026.2 0.0
22/07:00am 11.3 6.4 4.3 62 3.1 NE 19 22 10 12 1025.6 1025.6 0.0
22/06:30am 10.8 6.3 4.3 64 2.9 NE 17 20 9 11 1025.0 1025.0 0.0
22/06:00am 11.8 6.7 4.1 59 3.4 NE 20 24 11 13 1024.8 1024.8 0.0
22/05:30am 12.3 6.9 4.3 58 3.6 ENE 22 28 12 15 1024.6 1024.6 0.0
22/05:00am 12.1 6.7 4.6 60 3.4 NE 22 28 12 15 1024.4 1024.4 0.0
22/04:30am 10.8 6.0 4.7 66 2.7 NE 19 24 10 13 1024.4 1024.4 0.0
22/04:00am 11.6 6.6 4.8 63 3.1 NE 20 24 11 13 1024.4 1024.4 0.0
22/03:30am 12.1 6.8 4.8 61 3.3 NE 22 28 12 15 1024.3 1024.3 0.0
22/03:00am 12.2 6.9 5.1 62 3.3 NE 22 28 12 15 1024.4 1024.4 0.0
22/02:30am 10.9 6.6 5.2 68 2.6 NE 17 19 9 10 1024.7 1024.7 0.0
22/02:00am 11.0 6.3 5.1 67 2.7 NE 19 22 10 12 1025.0 1025.0 0.0
22/01:30am 12.2 7.6 5.6 64 3.1 NE 19 22 10 12 1025.2 1025.2 0.0
22/01:00am 11.7 7.5 5.8 67 2.7 NE 17 22 9 12 1025.3 1025.3 0.0
22/12:30am 10.0 6.9 5.4 73 2.1 ENE 11 15 6 8 1025.4 1025.4 0.0
22/12:00am 9.1 5.8 4.7 74 1.9 ENE 11 15 6 8 1025.4 1025.4 0.0
 
Date/Time
CST
Temp
°C
App
Temp
°C
Dew
Point
Rel
Hum
%
Delta-T
°C
Wind Press
QNH
hPa
Press
MSL
hPa
Rain
since 9 am
mm
Dir
 
Spd
km/h
Gust
km/h
Spd
kts
Gust
kts
21/11:30pm 9.4 6.5 4.6 72 2.1 NE 9 11 5 6 1025.6 1025.6 0.0
21/11:00pm 12.0 8.2 5.6 65 3.0 ENE 15 20 8 11 1025.5 1025.5 0.0
21/10:30pm 12.3 8.6 6.1 66 2.9 ENE 15 20 8 11 1025.5 1025.5 0.0
21/10:00pm 9.4 6.1 4.8 73 2.1 NE 11 15 6 8 1025.7 1025.7 0.0
21/09:30pm 11.5 7.7 6.0 69 2.6 NNE 15 17 8 9 1025.6 1025.6 0.0
21/09:00pm 10.5 7.6 4.4 66 2.7 NE 9 11 5 6 1025.6 1025.6 0.0
21/08:30pm 13.3 10.7 5.9 61 3.5 E 9 13 5 7 1025.5 1025.5 0.0
21/08:00pm 13.4 10.8 6.0 61 3.5 E 9 13 5 7 1025.3 1025.3 0.0
21/07:30pm 13.6 11.0 6.2 61 3.5 E 9 11 5 6 1025.2 1025.2 0.0
21/07:00pm 14.1 11.2 6.5 60 3.7 E 11 15 6 8 1025.1 1025.1 0.0
21/06:30pm 15.3 12.0 6.3 55 4.3 E 13 17 7 9 1024.8 1024.8 0.0
21/06:00pm 15.0 11.9 7.3 60 3.8 ENE 13 17 7 9 1024.7 1024.7 0.0
21/05:30pm 15.1 11.6 7.2 59 3.9 ENE 15 20 8 11 1024.3 1024.3 0.0
21/05:00pm 15.9 12.4 7.1 56 4.3 ENE 15 19 8 10 1024.1 1024.1 0.0
21/04:30pm 16.4 13.3 7.3 55 4.5 ENE 13 17 7 9 1023.8 1023.8 0.0
21/04:00pm 17.1 13.2 7.2 52 4.9 ENE 17 20 9 11 1023.6 1023.6 0.0
21/03:30pm 17.7 14.2 7.4 51 5.2 E 15 20 8 11 1023.7 1023.7 0.0
21/03:00pm 17.3 13.5 7.4 52 4.9 ENE 17 22 9 12 1024.0 1024.0 0.0
21/02:30pm 17.7 14.0 8.0 53 4.9 NE 17 20 9 11 1024.1 1024.1 0.0
21/02:00pm 17.0 13.2 7.4 53 4.8 NE 17 22 9 12 1024.2 1024.2 0.0
21/01:30pm 17.6 13.8 7.6 52 5.0 NE 17 24 9 13 1024.3 1024.3 0.0
21/01:00pm 17.8 14.5 8.1 53 5.0 NE 15 20 8 11 1024.8 1024.8 0.0
21/12:30pm 17.4 13.4 6.6 49 5.3 NE 17 22 9 12 1025.2 1025.2 0.0
21/12:00pm 17.3 13.5 7.4 52 4.9 NE 17 20 9 11 1025.7 1025.7 0.0
21/11:30am 16.3 11.4 7.0 54 4.6 NE 22 30 12 16 1026.2 1026.2 0.0
21/11:00am 15.8 10.3 6.0 52 4.7 NE 24 30 13 16 1026.5 1026.5 0.0
21/10:30am 15.2 9.2 5.4 52 4.6 NE 26 32 14 17 1026.9 1026.9 0.0
21/10:00am 14.4 8.0 5.2 54 4.3 NE 28 35 15 19 1027.0 1027.0 0.0
21/09:30am 13.8 8.1 4.7 54 4.2 ENE 24 28 13 15 1027.2 1027.2 0.0
21/09:00am 13.3 8.9 4.7 56 3.9 ENE 17 24 9 13 1027.3 1027.3 0.0
21/08:30am 11.6 7.6 4.8 63 3.1 ENE 15 19 8 10 1027.3 1027.3 0.0
21/08:00am 10.1 5.6 4.0 66 2.7 ENE 17 22 9 12 1027.2 1027.2 0.0
21/07:30am 8.3 4.5 3.9 74 1.9 ENE 13 17 7 9 1027.1 1027.1 0.0
21/07:00am 6.7 3.0 2.4 74 1.8 ENE 11 13 6 7 1027.0 1027.0 0.0
21/06:30am 6.2 2.9 2.5 77 1.5 ENE 9 11 5 6 1026.6 1026.6 0.0
21/06:00am 5.9 2.6 2.4 78 1.4 NE 9 13 5 7 1026.6 1026.6 0.0
21/05:30am 7.2 3.9 2.5 72 1.9 ENE 9 15 5 8 1026.4 1026.4 0.0
21/05:00am 6.7 3.9 2.2 73 1.8 NE 6 7 3 4 1026.4 1026.4 0.0
21/04:30am 7.1 4.2 2.6 73 1.9 ENE 7 11 4 6 1026.4 1026.4 0.0
21/04:00am 7.8 4.2 2.7 70 2.1 NE 11 20 6 11 1026.3 1026.3 0.0
21/03:30am 9.4 5.8 2.7 63 2.8 E 11 17 6 9 1026.2 1026.2 0.0
21/03:00am 9.2 5.6 2.8 64 2.7 E 11 17 6 9 1026.3 1026.3 0.0
21/02:30am 9.5 5.5 2.8 63 2.8 E 13 19 7 10 1026.4 1026.4 0.0
21/02:00am 9.8 5.1 2.9 62 3.0 E 17 22 9 12 1026.5 1026.5 0.0
21/01:30am 10.0 5.2 2.8 61 3.1 E 17 24 9 13 1026.7 1026.7 0.0
21/01:00am 9.8 5.4 2.9 62 3.0 E 15 20 8 11 1026.7 1026.7 0.0
21/12:30am 9.9 5.1 2.7 61 3.1 ESE 17 24 9 13 1026.8 1026.8 0.0
21/12:00am 10.0 4.9 2.8 61 3.1 E 19 26 10 14 1026.7 1026.7 0.0
 
Date/Time
CST
Temp
°C
App
Temp
°C
Dew
Point
Rel
Hum
%
Delta-T
°C
Wind Press
QNH
hPa
Press
MSL
hPa
Rain
since 9 am
mm
Dir
 
Spd
km/h
Gust
km/h
Spd
kts
Gust
kts
20/11:30pm 10.0 4.9 2.8 61 3.1 E 19 26 10 14 1026.8 1026.8 0.0
20/11:00pm 10.1 5.3 2.7 60 3.2 ESE 17 26 9 14 1026.8 1026.8 0.0
20/10:30pm 10.1 5.7 2.7 60 3.1 ESE 15 24 8 13 1026.8 1026.8 0.0
20/10:00pm 9.9 5.9 3.0 62 3.0 ESE 13 20 7 11 1026.9 1026.9 0.0
20/09:30pm 10.2 4.9 3.0 61 3.1 ESE 20 32 11 17 1026.9 1026.9 0.0
20/09:00pm 10.4 5.1 3.2 61 3.1 ESE 20 33 11 18 1026.8 1026.8 0.0
20/08:30pm 10.1 6.2 3.4 63 2.9 ESE 13 24 7 13 1026.8 1026.8 0.0
20/08:00pm 10.3 6.4 3.3 62 3.0 ESE 13 19 7 10 1026.8 1026.8 0.0
20/07:30pm 10.4 7.0 3.9 64 2.8 SE 11 15 6 8 1026.7 1026.7 0.0
20/07:00pm 11.2 7.5 4.2 62 3.1 SE 13 24 7 13 1026.5 1026.5 0.0
20/06:30pm 12.0 7.9 4.2 59 3.5 ESE 15 20 8 11 1026.4 1026.4 0.0
20/06:00pm 12.5 9.2 4.7 59 3.5 SSE 11 15 6 8 1026.2 1026.2 0.0
20/05:30pm 12.7 9.1 5.1 60 3.5 SSW 13 15 7 8 1026.1 1026.1 0.0
20/05:00pm 13.0 9.4 5.2 59 3.6 SSW 13 17 7 9 1026.0 1026.0 0.0

Other Formats:

Comma delimited format used in spreadsheet applications
http://www.bom.gov.au/fwo/IDS60801/IDS60801.95676.axf

JavaScript Object Notation format (JSON) in row-major order
http://www.bom.gov.au/fwo/IDS60801/IDS60801.95676.json